QPF
0.00 0.00 0.00 0.00 0.00 0.00 0.00 0.01 0.01 0.01 0.00 0.00 0.00 0.00 0.00 0.00 0.00 0.00 0.00 0.00 0.00 0.01 0.01 0.01 0.00 0.01 0.01 0.02 0.02 0.03 0.03 0.04 0.06 0.08 0.11 0.12 0.12 0.13
0.00 0.00 0.00 0.00 0.00 0.00 0.00 0.00 0.00 0.01 0.00 0.00 0.00 0.00 0.00 0.00 0.00 0.00 0.00 0.00 0.00 0.01 0.01 0.01 0.00 0.01 0.01 0.02 0.02 0.04 0.03 0.03 0.05 0.06 0.06 0.08 0.09 0.12
0.00 0.00 0.00 0.00 0.00 0.00 0.00 0.00 0.00 0.00 0.00 0.00 0.00 0.00 0.00 0.00 0.00 0.00 0.00 0.00 0.00 0.00 0.01 0.01 0.01 0.00 0.01 0.01 0.02 0.03 0.04 0.05 0.05 0.06 0.07 0.07 0.08 0.09
0.00 0.00 0.00 0.00 0.00 0.00 0.00 0.00 0.00 0.00 0.00 0.00 0.00 0.00 0.00 0.00 0.00 0.00 0.00 0.00 0.00 0.00 0.00 0.00 0.00 0.00 0.01 0.01 0.01 0.02 0.03 0.05 0.05 0.06 0.07 0.07 0.08 0.08
0.00 0.00 0.00 0.00 0.00 0.00 0.00 0.00 0.00 0.00 0.00 0.00 0.00 0.00 0.00 0.00 0.00 0.00 0.00 0.00 0.00 0.00 0.00 0.00 0.00 0.00 0.01 0.01 0.01 0.01 0.02 0.03 0.03 0.04 0.05 0.06 0.07 0.08
0.00 0.00 0.00 0.00 0.00 0.00 0.00 0.00 0.00 0.00 0.00 0.00 0.00 0.00 0.00 0.00 0.00 0.00 0.00 0.00 0.00 0.00 0.00 0.00 0.00 0.00 0.00 0.01 0.01 0.01 0.01 0.01 0.02 0.02 0.02 0.03 0.04 0.05
0.00 0.00 0.00 0.00 0.00 0.00 0.00 0.00 0.00 0.00 0.00 0.00 0.00 0.00 0.00 0.00 0.00 0.00 0.00 0.00 0.00 0.00 0.00 0.00 0.00 0.00 0.00 0.00 0.00 0.00 0.00 0.01 0.01 0.01 0.01 0.01 0.01 0.02
0.00 0.00 0.00 0.00 0.00 0.00 0.00 0.00 0.00 0.00 0.00 0.00 0.00 0.00 0.00 0.00 0.00 0.00 0.00 0.00 0.00 0.00 0.00 0.00 0.00 0.00 0.00 0.00 0.00 0.00 0.00 0.00 0.00 0.00 0.00 0.00 0.01 0.01
0.00 0.00 0.00 0.00 0.00 0.00 0.00 0.00 0.00 0.00 0.00 0.00 0.00 0.00 0.00 0.00 0.00 0.00 0.00 0.00 0.00 0.00 0.00 0.00 0.00 0.00 0.00 0.00 0.00 0.00 0.00 0.00 0.00 0.00 0.00 0.00 0.00 0.00
0.00 0.00 0.00 0.00 0.00 0.00 0.00 0.00 0.00 0.00 0.00 0.00 0.00 0.00 0.00 0.00 0.00 0.00 0.00 0.00 0.00 0.00 0.00 0.00 0.00 0.00 0.00 0.00 0.00 0.00 0.00 0.00 0.00 0.00 0.00 0.00 0.00 0.00
0.00 0.00 0.00 0.00 0.00 0.00 0.00 0.00 0.00 0.00 0.00 0.00 0.00 0.00 0.00 0.00 0.00 0.00 0.00 0.00 0.00 0.00 0.00 0.00 0.00 0.00 0.00 0.00 0.00 0.00 0.00 0.00 0.00 0.00 0.00 0.00 0.00 0.00
0.00 0.00 0.00 0.00 0.00 0.00 0.00 0.00 0.00 0.00 0.00 0.00 0.00 0.00 0.00 0.00 0.00 0.00 0.00 0.00 0.00 0.00 0.00 0.00 0.00 0.00 0.00 0.00 0.00 0.00 0.00 0.00 0.00 0.00 0.00 0.00 0.00 0.00
0.00 0.00 0.00 0.00 0.00 0.00 0.00 0.00 0.00 0.00 0.00 0.00 0.00 0.00 0.00 0.00 0.00 0.00 0.00 0.00 0.00 0.00 0.00 0.00 0.00 0.00 0.00 0.00 0.00 0.00 0.00 0.00 0.00 0.00 0.00 0.00 0.00 0.00
0.00 0.00 0.00 0.00 0.00 0.00 0.00 0.00 0.00 0.00 0.00 0.00 0.00 0.00 0.00 0.00 0.00 0.00 0.00 0.00 0.00 0.00 0.00 0.00 0.00 0.00 0.00 0.00 0.00 0.00 0.00 0.00 0.00 0.00 0.00 0.00 0.00 0.00
0.00 0.00 0.00 0.00 0.00 0.00 0.00 0.00 0.00 0.00 0.00 0.00 0.00 0.00 0.00 0.00 0.00 0.00 0.00 0.00 0.00 0.00 0.00 0.00 0.00 0.00 0.00 0.00 0.00 0.00 0.00 0.00 0.00 0.00 0.00 0.00 0.00 0.00
0.00 0.00 0.00 0.00 0.00 0.00 0.00 0.00 0.00 0.00 0.00 0.00 0.00 0.00 0.00 0.00 0.00 0.00 0.00 0.00 0.00 0.00 0.00 0.00 0.00 0.00 0.00 0.00 0.00 0.00 0.00 0.00 0.00 0.00 0.00 0.00 0.00 0.00
0.00 0.00 0.00 0.00 0.00 0.00 0.00 0.00 0.00 0.00 0.00 0.00 0.00 0.00 0.00 0.00 0.00 0.00 0.00 0.00 0.00 0.00 0.00 0.00 0.00 0.00 0.00 0.00 0.00 0.00 0.00 0.00 0.00 0.00 0.00 0.00 0.00 0.00
0.00 0.00 0.00 0.00 0.00 0.00 0.00 0.00 0.00 0.00 0.00 0.00 0.00 0.00 0.00 0.00 0.00 0.00 0.00 0.00 0.00 0.00 0.00 0.00 0.00 0.00 0.00 0.00 0.00 0.00 0.00 0.00 0.00 0.00 0.00 0.00 0.00 0.00
0.00 0.00 0.00 0.00 0.00 0.00 0.00 0.00 0.00 0.00 0.00 0.00 0.00 0.00 0.00 0.00 0.00 0.00 0.00 0.00 0.00 0.00 0.00 0.00 0.00 0.00 0.01 0.00 0.00 0.00 0.00 0.00 0.00 0.00 0.00 0.00 0.00 0.00
0.00 0.00 0.00 0.00 0.00 0.00 0.00 0.00 0.00 0.00 0.00 0.00 0.00 0.00 0.00 0.00 0.00 0.00 0.00 0.00 0.00 0.00 0.00 0.00 0.00 0.00 0.01 0.01 0.00 0.00 0.00 0.00 0.00 0.00 0.00 0.00 0.00 0.00
0.00 0.00 0.00 0.00 0.00 0.00 0.00 0.00 0.00 0.00 0.00 0.00 0.00 0.00 0.00 0.00 0.00 0.00 0.00 0.00 0.00 0.00 0.00 0.00 0.00 0.00 0.01 0.02 0.01 0.00 0.00 0.00 0.00 0.00 0.00 0.01 0.00 0.00
0.00 0.00 0.00 0.00 0.00 0.00 0.00 0.00 0.00 0.00 0.00 0.00 0.00 0.00 0.00 0.00 0.00 0.00 0.00 0.00 0.00 0.00 0.00 0.00 0.00 0.00 0.01 0.02 0.01 0.00 0.00 0.00 0.00 0.00 0.00 0.01 0.01 0.01
0.01 0.01 0.01 0.01 0.01 0.01 0.01 0.01 0.01 0.01 0.00 0.01 0.00 0.00 0.00 0.00 0.00 0.00 0.00 0.00 0.00 0.00 0.00 0.00 0.00 0.00 0.01 0.01 0.01 0.00 0.00 0.00 0.00 0.00 0.00 0.00 0.00 0.00
MSLP
1019.64 1019.72 1019.75 1019.71 1019.59 1019.40 1019.18 1018.98 1018.83 1018.77 1018.84 1019.04 1019.35 1019.72 1020.11 1020.44 1020.70 1020.83 1020.85 1020.75 1020.57 1020.34 1020.08 1019.83 1019.58 1019.34 1019.08 1018.79 1018.46 1018.09 1017.71 1017.33 1017.01 1016.78 1016.69 1016.77 1017.03 1017.45
1019.85 1019.94 1019.97 1019.93 1019.80 1019.60 1019.38 1019.16 1019.01 1018.96 1019.03 1019.24 1019.56 1019.94 1020.33 1020.68 1020.95 1021.11 1021.14 1021.06 1020.89 1020.68 1020.43 1020.19 1019.94 1019.69 1019.42 1019.12 1018.76 1018.36 1017.93 1017.50 1017.12 1016.83 1016.68 1016.69 1016.89 1017.25
1020.07 1020.18 1020.23 1020.20 1020.08 1019.90 1019.68 1019.46 1019.32 1019.27 1019.34 1019.55 1019.86 1020.24 1020.62 1020.97 1021.24 1021.40 1021.44 1021.38 1021.23 1021.03 1020.80 1020.56 1020.32 1020.08 1019.81 1019.50 1019.14 1018.73 1018.30 1017.86 1017.47 1017.16 1016.97 1016.95 1017.10 1017.41
1020.29 1020.44 1020.52 1020.52 1020.43 1020.27 1020.07 1019.88 1019.74 1019.70 1019.77 1019.97 1020.26 1020.62 1020.99 1021.32 1021.57 1021.73 1021.77 1021.71 1021.57 1021.39 1021.17 1020.95 1020.72 1020.48 1020.22 1019.92 1019.58 1019.20 1018.79 1018.38 1018.00 1017.71 1017.53 1017.49 1017.61 1017.87
1020.50 1020.68 1020.81 1020.85 1020.80 1020.68 1020.52 1020.36 1020.24 1020.21 1020.29 1020.47 1020.74 1021.06 1021.40 1021.70 1021.93 1022.06 1022.10 1022.04 1021.92 1021.74 1021.54 1021.33 1021.11 1020.89 1020.64 1020.37 1020.06 1019.71 1019.34 1018.98 1018.65 1018.40 1018.25 1018.22 1018.33 1018.55
1020.68 1020.91 1021.08 1021.16 1021.16 1021.08 1020.97 1020.85 1020.77 1020.75 1020.83 1020.99 1021.23 1021.52 1021.81 1022.07 1022.26 1022.38 1022.40 1022.35 1022.24 1022.07 1021.89 1021.70 1021.50 1021.29 1021.06 1020.81 1020.53 1020.22 1019.90 1019.60 1019.33 1019.13 1019.02 1019.01 1019.11 1019.31
1020.85 1021.11 1021.30 1021.42 1021.47 1021.44 1021.37 1021.29 1021.24 1021.24 1021.31 1021.46 1021.67 1021.91 1022.16 1022.38 1022.54 1022.64 1022.66 1022.61 1022.51 1022.37 1022.21 1022.04 1021.86 1021.66 1021.45 1021.22 1020.96 1020.69 1020.42 1020.16 1019.95 1019.79 1019.72 1019.73 1019.84 1020.00
1021.00 1021.27 1021.48 1021.62 1021.69 1021.70 1021.67 1021.62 1021.60 1021.61 1021.69 1021.82 1022.00 1022.20 1022.41 1022.59 1022.73 1022.81 1022.83 1022.80 1022.72 1022.61 1022.48 1022.34 1022.18 1022.00 1021.81 1021.59 1021.35 1021.10 1020.85 1020.62 1020.44 1020.32 1020.27 1020.30 1020.39 1020.53
1021.12 1021.38 1021.59 1021.73 1021.82 1021.84 1021.83 1021.82 1021.81 1021.84 1021.91 1022.03 1022.18 1022.36 1022.53 1022.69 1022.81 1022.88 1022.92 1022.91 1022.86 1022.79 1022.70 1022.59 1022.46 1022.30 1022.12 1021.90 1021.67 1021.42 1021.18 1020.97 1020.80 1020.69 1020.64 1020.67 1020.75 1020.86
1021.20 1021.44 1021.63 1021.76 1021.84 1021.87 1021.87 1021.86 1021.87 1021.91 1021.98 1022.08 1022.22 1022.38 1022.53 1022.67 1022.79 1022.87 1022.92 1022.94 1022.94 1022.91 1022.86 1022.79 1022.68 1022.55 1022.37 1022.17 1021.93 1021.68 1021.44 1021.22 1021.04 1020.92 1020.86 1020.87 1020.92 1021.00
1021.21 1021.43 1021.59 1021.70 1021.77 1021.79 1021.80 1021.80 1021.81 1021.85 1021.92 1022.02 1022.15 1022.30 1022.44 1022.58 1022.70 1022.80 1022.88 1022.93 1022.97 1022.98 1022.97 1022.94 1022.86 1022.75 1022.59 1022.39 1022.15 1021.89 1021.64 1021.40 1021.21 1021.07 1020.99 1020.96 1020.98 1021.02
1021.15 1021.34 1021.49 1021.58 1021.63 1021.65 1021.65 1021.65 1021.67 1021.71 1021.78 1021.89 1022.02 1022.16 1022.31 1022.45 1022.58 1022.70 1022.81 1022.89 1022.97 1023.02 1023.05 1023.05 1023.00 1022.91 1022.77 1022.57 1022.34 1022.08 1021.82 1021.57 1021.36 1021.19 1021.08 1021.02 1021.00 1021.00
1021.00 1021.18 1021.32 1021.40 1021.45 1021.46 1021.46 1021.47 1021.49 1021.54 1021.62 1021.73 1021.86 1022.01 1022.17 1022.33 1022.48 1022.61 1022.74 1022.86 1022.96 1023.04 1023.10 1023.12 1023.10 1023.03 1022.90 1022.72 1022.50 1022.25 1021.99 1021.73 1021.51 1021.32 1021.18 1021.08 1021.02 1020.99
1020.74 1020.94 1021.08 1021.18 1021.23 1021.25 1021.26 1021.27 1021.31 1021.36 1021.46 1021.58 1021.72 1021.89 1022.06 1022.23 1022.39 1022.54 1022.69 1022.82 1022.94 1023.04 1023.11 1023.14 1023.14 1023.08 1022.97 1022.81 1022.61 1022.37 1022.12 1021.87 1021.64 1021.44 1021.28 1021.15 1021.05 1020.98
1020.38 1020.60 1020.77 1020.89 1020.96 1021.01 1021.04 1021.07 1021.12 1021.20 1021.30 1021.44 1021.60 1021.78 1021.96 1022.14 1022.32 1022.49 1022.64 1022.78 1022.90 1023.00 1023.07 1023.11 1023.11 1023.06 1022.96 1022.82 1022.63 1022.41 1022.17 1021.94 1021.71 1021.50 1021.33 1021.17 1021.04 1020.93
1019.92 1020.18 1020.38 1020.53 1020.64 1020.72 1020.78 1020.84 1020.91 1021.01 1021.13 1021.29 1021.47 1021.66 1021.86 1022.06 1022.24 1022.42 1022.57 1022.71 1022.82 1022.91 1022.97 1022.99 1022.98 1022.93 1022.84 1022.70 1022.53 1022.32 1022.10 1021.88 1021.66 1021.45 1021.26 1021.08 1020.92 1020.77
1019.36 1019.65 1019.89 1020.09 1020.24 1020.35 1020.44 1020.54 1020.64 1020.76 1020.91 1021.09 1021.29 1021.50 1021.71 1021.92 1022.11 1022.29 1022.44 1022.56 1022.66 1022.73 1022.77 1022.77 1022.74 1022.68 1022.58 1022.44 1022.27 1022.08 1021.87 1021.65 1021.43 1021.22 1021.01 1020.81 1020.62 1020.43
1018.69 1019.01 1019.29 1019.52 1019.71 1019.87 1020.00 1020.13 1020.26 1020.42 1020.59 1020.79 1021.01 1021.24 1021.46 1021.68 1021.88 1022.05 1022.20 1022.32 1022.39 1022.44 1022.45 1022.43 1022.38 1022.29 1022.17 1022.02 1021.85 1021.65 1021.44 1021.22 1021.00 1020.78 1020.55 1020.33 1020.10 1019.87
1017.94 1018.27 1018.57 1018.84 1019.06 1019.25 1019.42 1019.58 1019.75 1019.94 1020.14 1020.36 1020.60 1020.84 1021.08 1021.31 1021.52 1021.70 1021.84 1021.94 1022.00 1022.03 1022.02 1021.97 1021.89 1021.78 1021.64 1021.47 1021.29 1021.08 1020.86 1020.63 1020.39 1020.15 1019.90 1019.65 1019.39 1019.13
1017.11 1017.44 1017.75 1018.03 1018.27 1018.49 1018.70 1018.89 1019.10 1019.31 1019.54 1019.79 1020.05 1020.31 1020.57 1020.80 1021.02 1021.20 1021.34 1021.44 1021.49 1021.50 1021.47 1021.41 1021.31 1021.18 1021.02 1020.83 1020.63 1020.41 1020.17 1019.92 1019.67 1019.40 1019.13 1018.85 1018.56 1018.28
1016.22 1016.54 1016.84 1017.12 1017.38 1017.62 1017.86 1018.08 1018.32 1018.56 1018.82 1019.10 1019.37 1019.65 1019.92 1020.17 1020.39 1020.58 1020.72 1020.82 1020.87 1020.88 1020.84 1020.77 1020.66 1020.52 1020.35 1020.15 1019.93 1019.70 1019.44 1019.18 1018.90 1018.61 1018.32 1018.02 1017.71 1017.40
1015.31 1015.60 1015.89 1016.16 1016.43 1016.69 1016.94 1017.20 1017.46 1017.74 1018.02 1018.32 1018.61 1018.91 1019.19 1019.44 1019.67 1019.86 1020.01 1020.12 1020.18 1020.19 1020.16 1020.09 1019.98 1019.84 1019.67 1019.47 1019.25 1019.00 1018.74 1018.46 1018.16 1017.86 1017.55 1017.23 1016.90 1016.58
1014.44 1014.69 1014.96 1015.22 1015.48 1015.75 1016.02 1016.29 1016.58 1016.88 1017.19 1017.50 1017.82 1018.12 1018.41 1018.67 1018.91 1019.10 1019.26 1019.37 1019.44 1019.46 1019.45 1019.39 1019.30 1019.17 1019.01 1018.81 1018.60 1018.35 1018.08 1017.80 1017.49 1017.17 1016.85 1016.52 1016.18 1015.85
Thickness
5579 5577 5576 5574 5572 5571 5570 5569 5568 5567 5563 5554 5547 5544 5542 5540 5538 5536 5535 5533 5533 5532 5532 5532 5533 5534 5535 5535 5536 5536 5536 5535 5535 5534 5533 5532 5529 5527
5566 5564 5563 5561 5560 5558 5557 5556 5555 5555 5553 5544 5537 5533 5530 5528 5526 5525 5523 5522 5522 5522 5521 5522 5523 5523 5524 5525 5526 5526 5527 5527 5527 5526 5525 5524 5522 5520
5552 5550 5549 5547 5546 5544 5543 5542 5541 5540 5540 5531 5526 5521 5518 5516 5515 5513 5512 5511 5511 5511 5511 5511 5512 5512 5513 5514 5515 5516 5517 5517 5517 5517 5516 5516 5514 5513
5539 5537 5535 5534 5532 5530 5529 5528 5527 5526 5525 5521 5514 5510 5507 5505 5504 5503 5501 5501 5500 5501 5501 5501 5501 5501 5502 5503 5504 5504 5505 5505 5506 5506 5506 5506 5505 5503
5525 5523 5521 5519 5517 5516 5515 5514 5513 5512 5512 5510 5504 5499 5497 5495 5493 5492 5491 5490 5490 5491 5491 5491 5491 5491 5491 5491 5492 5493 5493 5494 5494 5495 5494 5494 5493 5492
5511 5509 5508 5506 5504 5503 5501 5500 5500 5499 5498 5497 5492 5489 5486 5484 5482 5480 5479 5479 5479 5480 5480 5480 5480 5480 5480 5481 5481 5482 5482 5482 5482 5482 5482 5481 5481 5480
5497 5496 5494 5493 5492 5491 5489 5487 5487 5486 5485 5484 5481 5478 5475 5472 5470 5469 5468 5467 5468 5468 5469 5470 5470 5470 5470 5470 5470 5470 5471 5470 5470 5470 5469 5469 5468 5467
5485 5483 5481 5480 5480 5479 5478 5477 5476 5474 5473 5472 5469 5467 5464 5462 5460 5460 5458 5457 5458 5458 5458 5459 5459 5459 5459 5459 5459 5459 5459 5459 5458 5458 5457 5456 5455 5454
5473 5471 5470 5469 5467 5466 5465 5464 5464 5464 5463 5461 5459 5456 5455 5453 5451 5450 5448 5447 5447 5448 5447 5448 5448 5448 5449 5449 5449 5449 5448 5447 5447 5446 5445 5445 5444 5443
5462 5460 5458 5457 5456 5455 5453 5452 5451 5451 5451 5451 5450 5448 5447 5445 5443 5442 5440 5439 5438 5438 5438 5436 5437 5437 5438 5438 5438 5438 5436 5436 5435 5434 5433 5432 5431 5430
5451 5449 5448 5447 5448 5447 5444 5442 5441 5441 5441 5441 5440 5439 5438 5437 5435 5433 5430 5428 5428 5428 5426 5425 5425 5425 5426 5426 5426 5426 5425 5424 5423 5422 5421 5420 5418 5417
5441 5440 5440 5439 5439 5439 5435 5433 5432 5432 5432 5431 5431 5430 5429 5428 5427 5424 5421 5417 5416 5415 5415 5414 5412 5411 5411 5414 5414 5413 5412 5411 5410 5409 5408 5407 5405 5404
5433 5432 5432 5433 5432 5431 5429 5426 5426 5425 5423 5422 5421 5420 5419 5418 5417 5415 5413 5409 5406 5404 5405 5402 5398 5396 5394 5396 5400 5400 5399 5398 5398 5397 5395 5394 5392 5391
5428 5427 5426 5426 5425 5424 5423 5421 5420 5419 5416 5414 5413 5412 5410 5409 5407 5405 5403 5401 5399 5396 5394 5391 5387 5384 5381 5380 5383 5386 5387 5386 5385 5384 5382 5381 5379 5378
5423 5422 5421 5420 5419 5418 5417 5416 5414 5411 5409 5407 5406 5404 5402 5400 5398 5396 5393 5391 5389 5387 5385 5382 5378 5374 5370 5368 5369 5370 5370 5373 5372 5370 5369 5367 5365 5364
5419 5417 5417 5415 5414 5412 5410 5409 5407 5404 5402 5400 5399 5397 5394 5391 5388 5386 5383 5380 5378 5377 5375 5372 5369 5365 5361 5359 5357 5358 5357 5356 5359 5357 5355 5354 5353 5352
5413 5410 5409 5407 5406 5405 5403 5402 5400 5398 5396 5393 5391 5389 5386 5383 5380 5377 5373 5370 5366 5364 5363 5361 5359 5356 5354 5350 5349 5350 5349 5347 5347 5345 5343 5342 5343 5341
5409 5406 5405 5403 5402 5400 5399 5397 5395 5392 5390 5387 5384 5380 5378 5374 5371 5368 5364 5360 5357 5355 5352 5350 5347 5345 5343 5344 5343 5341 5339 5338 5336 5334 5331 5329 5331 5331
5407 5404 5402 5400 5398 5396 5394 5391 5389 5387 5384 5381 5377 5373 5369 5366 5362 5359 5355 5352 5348 5346 5343 5340 5336 5333 5330 5330 5335 5333 5329 5327 5324 5322 5320 5319 5319 5320
5404 5402 5399 5397 5395 5392 5390 5387 5385 5381 5378 5374 5371 5367 5363 5358 5355 5351 5348 5344 5341 5338 5335 5331 5327 5324 5322 5320 5320 5320 5319 5316 5313 5311 5310 5309 5310 5311
5402 5400 5398 5395 5392 5389 5386 5383 5380 5376 5373 5369 5365 5361 5356 5352 5348 5345 5341 5339 5335 5331 5327 5325 5322 5319 5315 5310 5309 5312 5309 5307 5304 5300 5298 5297 5299 5300
5400 5398 5396 5392 5389 5385 5382 5378 5374 5371 5367 5363 5360 5355 5351 5346 5342 5339 5335 5331 5328 5325 5321 5318 5313 5308 5304 5302 5302 5302 5300 5297 5294 5292 5290 5288 5286 5287
5398 5395 5392 5389 5385 5381 5378 5374 5370 5367 5363 5359 5355 5350 5345 5341 5337 5333 5329 5325 5321 5317 5313 5309 5304 5299 5296 5294 5292 5291 5289 5287 5285 5283 5282 5279 5279 5280